Time,TemperatureF,DewpointF,PressureIn,WindDirection,WindDirectionDegrees,WindSpeedMPH,WindSpeedGustMPH,Humidity,HourlyPrecipIn,Conditions,Clouds,dailyrainin,SoftwareType,DateUTC
2013-05-08 00:01:00,58.0,49.0,30.02,SSW,200,2.0,4.0,71,0.00,,,0.00,,2013-05-08 07:01:00,
2013-05-08 00:11:00,58.0,49.0,30.02,SSW,200,2.0,4.0,71,0.00,,,0.00,,2013-05-08 07:11:00,
2013-05-08 00:21:00,57.0,49.0,30.03,SSW,199,1.0,4.0,74,0.00,,,0.00,,2013-05-08 07:21:00,
2013-05-08 00:31:00,57.0,49.0,30.03,SSW,203,0.0,3.0,75,0.00,,,0.00,,2013-05-08 07:31:00,
2013-05-08 00:41:00,57.0,49.0,30.03,SSW,203,0.0,3.0,75,0.00,,,0.00,,2013-05-08 07:41:00,
2013-05-08 00:52:00,57.0,50.0,30.02,SSW,212,2.0,4.0,76,0.00,,,0.00,,2013-05-08 07:52:00,
2013-05-08 01:01:00,57.0,50.0,30.02,SW,219,1.0,4.0,76,0.00,,,0.00,,2013-05-08 08:01:00,
2013-05-08 01:11:00,57.0,50.0,30.02,SW,219,1.0,4.0,76,0.00,,,0.00,,2013-05-08 08:11:00,
2013-05-08 01:21:00,56.0,49.0,30.02,SW,218,0.0,3.0,77,0.00,,,0.00,,2013-05-08 08:21:00,
2013-05-08 01:31:00,56.0,49.0,30.02,SW,219,0.0,1.0,77,0.00,,,0.00,,2013-05-08 08:31:00,
2013-05-08 01:42:00,56.0,49.0,30.02,SW,219,0.0,1.0,77,0.00,,,0.00,,2013-05-08 08:42:00,
2013-05-08 01:52:00,56.0,49.0,30.02,SW,226,1.0,3.0,77,0.00,,,0.00,,2013-05-08 08:52:00,
2013-05-08 02:01:00,56.0,50.0,30.02,SW,232,1.0,4.0,79,0.00,,,0.00,,2013-05-08 09:01:00,
2013-05-08 02:11:00,56.0,50.0,30.02,SW,232,1.0,4.0,79,0.00,,,0.00,,2013-05-08 09:11:00,
2013-05-08 02:21:00,55.0,49.0,30.03,WNW,284,3.0,6.0,81,0.00,,,0.00,,2013-05-08 09:21:00,
2013-05-08 02:32:00,55.0,50.0,30.03,West,278,3.0,5.0,82,0.00,,,0.00,,2013-05-08 09:32:00,
2013-05-08 02:42:00,55.0,50.0,30.03,West,278,3.0,5.0,82,0.00,,,0.00,,2013-05-08 09:42:00,
2013-05-08 02:53:00,54.0,49.0,30.03,WNW,284,5.0,7.0,83,0.00,,,0.00,,2013-05-08 09:53:00,
2013-05-08 03:02:00,54.0,49.0,30.03,WNW,284,3.0,7.0,83,0.00,,,0.00,,2013-05-08 10:02:00,
2013-05-08 03:12:00,54.0,49.0,30.03,WNW,284,3.0,7.0,83,0.00,,,0.00,,2013-05-08 10:12:00,
2013-05-08 03:22:00,54.0,49.0,30.03,West,262,2.0,5.0,84,0.00,,,0.00,,2013-05-08 10:22:00,
2013-05-08 03:32:00,54.0,49.0,30.03,West,277,2.0,4.0,84,0.00,,,0.00,,2013-05-08 10:32:00,
2013-05-08 03:42:00,54.0,49.0,30.03,West,277,2.0,4.0,84,0.00,,,0.00,,2013-05-08 10:42:00,
2013-05-08 03:52:00,54.0,49.0,30.03,WSW,249,2.0,4.0,84,0.00,,,0.00,,2013-05-08 10:52:00,
2013-05-08 04:02:00,53.0,49.0,30.03,WSW,247,2.0,3.0,85,0.00,,,0.00,,2013-05-08 11:02:00,
2013-05-08 04:11:00,53.0,49.0,30.03,WSW,247,2.0,3.0,85,0.00,,,0.00,,2013-05-08 11:11:00,
2013-05-08 04:22:00,53.0,49.0,30.03,WSW,246,0.0,2.0,85,0.00,,,0.00,,2013-05-08 11:22:00,
2013-05-08 04:32:00,53.0,49.0,30.03,WSW,246,1.0,2.0,85,0.00,,,0.00,,2013-05-08 11:32:00,
2013-05-08 04:41:00,53.0,49.0,30.03,WSW,246,1.0,2.0,85,0.00,,,0.00,,2013-05-08 11:41:00,
2013-05-08 04:52:00,53.0,49.0,30.04,WNW,288,2.0,4.0,85,0.00,,,0.00,,2013-05-08 11:52:00,
2013-05-08 05:01:00,53.0,49.0,30.05,WNW,288,1.0,4.0,85,0.00,,,0.00,,2013-05-08 12:01:00,
2013-05-08 05:11:00,53.0,49.0,30.05,WNW,288,1.0,4.0,85,0.00,,,0.00,,2013-05-08 12:11:00,
2013-05-08 05:21:00,53.0,49.0,30.04,WSW,242,1.0,3.0,85,0.00,,,0.00,,2013-05-08 12:21:00,
2013-05-08 05:31:00,53.0,49.0,30.05,SW,227,0.0,2.0,85,0.00,,,0.00,,2013-05-08 12:31:00,
2013-05-08 05:41:00,53.0,49.0,30.05,SW,227,0.0,2.0,85,0.00,,,0.00,,2013-05-08 12:41:00,
2013-05-08 05:52:00,53.0,49.0,30.04,SW,228,1.0,3.0,85,0.00,,,0.00,,2013-05-08 12:52:00,
2013-05-08 06:01:00,53.0,49.0,30.04,SW,215,2.0,4.0,85,0.00,,,0.00,,2013-05-08 13:01:00,
2013-05-08 06:11:00,53.0,49.0,30.04,SW,215,2.0,4.0,85,0.00,,,0.00,,2013-05-08 13:11:00,
2013-05-08 06:21:00,53.0,49.0,30.06,SSW,202,1.0,5.0,85,0.00,,,0.00,,2013-05-08 13:21:00,
2013-05-08 06:32:00,54.0,49.0,30.06,SSW,202,0.0,2.0,84,0.00,,,0.00,,2013-05-08 13:32:00,
2013-05-08 06:42:00,54.0,49.0,30.06,SSW,202,0.0,2.0,84,0.00,,,0.00,,2013-05-08 13:42:00,
2013-05-08 06:52:00,54.0,49.0,30.06,SSW,202,0.0,3.0,84,0.00,,,0.00,,2013-05-08 13:52:00,
2013-05-08 07:01:00,54.0,49.0,30.06,SW,215,1.0,4.0,84,0.00,,,0.00,,2013-05-08 14:01:00,
2013-05-08 07:11:00,54.0,49.0,30.06,SW,215,1.0,4.0,84,0.00,,,0.00,,2013-05-08 14:11:00,
2013-05-08 07:21:00,54.0,49.0,30.07,SSW,209,2.0,7.0,83,0.00,,,0.00,,2013-05-08 14:21:00,
2013-05-08 07:31:00,55.0,50.0,30.08,SW,233,2.0,5.0,83,0.00,,,0.00,,2013-05-08 14:31:00,
2013-05-08 07:41:00,55.0,50.0,30.08,SW,233,2.0,5.0,83,0.00,,,0.00,,2013-05-08 14:41:00,
2013-05-08 07:52:00,55.0,50.0,30.08,SW,214,2.0,8.0,82,0.00,,,0.00,,2013-05-08 14:52:00,
2013-05-08 08:01:00,55.0,49.0,30.08,NW,308,2.0,5.0,81,0.00,,,0.00,,2013-05-08 15:01:00,
2013-05-08 08:11:00,55.0,49.0,30.08,NW,308,2.0,5.0,81,0.00,,,0.00,,2013-05-08 15:11:00,
2013-05-08 08:21:00,56.0,50.0,30.08,WSW,244,3.0,7.0,79,0.00,,,0.00,,2013-05-08 15:21:00,
2013-05-08 08:32:00,57.0,50.0,30.08,WNW,295,3.0,7.0,77,0.00,,,0.00,,2013-05-08 15:32:00,
2013-05-08 08:42:00,57.0,50.0,30.08,WNW,295,3.0,7.0,77,0.00,,,0.00,,2013-05-08 15:42:00,
2013-05-08 08:52:00,58.0,50.0,30.09,West,277,2.0,4.0,76,0.00,,,0.00,,2013-05-08 15:52:00,
2013-05-08 09:02:00,58.0,50.0,30.09,NW,304,3.0,5.0,74,0.00,,,0.00,,2013-05-08 16:02:00,
2013-05-08 09:12:00,58.0,50.0,30.09,NW,304,3.0,5.0,74,0.00,,,0.00,,2013-05-08 16:12:00,
2013-05-08 09:23:00,60.0,51.0,30.09,West,262,2.0,7.0,72,0.00,,,0.00,,2013-05-08 16:23:00,
2013-05-08 09:33:00,60.0,51.0,30.09,West,279,1.0,5.0,72,0.00,,,0.00,,2013-05-08 16:33:00,
2013-05-08 09:42:00,60.0,51.0,30.09,West,279,1.0,5.0,72,0.00,,,0.00,,2013-05-08 16:42:00,
2013-05-08 09:52:00,59.0,50.0,30.09,West,279,3.0,7.0,72,0.00,,,0.00,,2013-05-08 16:52:00,
2013-05-08 10:02:00,59.0,50.0,30.09,WNW,292,2.0,8.0,71,0.00,,,0.00,,2013-05-08 17:02:00,
2013-05-08 10:11:00,59.0,50.0,30.09,WNW,292,2.0,8.0,71,0.00,,,0.00,,2013-05-08 17:11:00,
2013-05-08 10:22:00,60.0,51.0,30.09,NW,313,5.0,10.0,71,0.00,,,0.00,,2013-05-08 17:22:00,
2013-05-08 10:31:00,60.0,51.0,30.09,NW,313,5.0,10.0,71,0.00,,,0.00,,2013-05-08 17:31:00,
2013-05-08 10:41:00,60.0,51.0,30.09,NW,313,5.0,10.0,71,0.00,,,0.00,,2013-05-08 17:41:00,
2013-05-08 10:52:00,62.0,51.0,30.09,WNW,288,5.0,8.0,67,0.00,,,0.00,,2013-05-08 17:52:00,
2013-05-08 11:01:00,62.0,51.0,30.09,West,280,6.0,10.0,66,0.00,,,0.00,,2013-05-08 18:01:00,
2013-05-08 11:11:00,62.0,51.0,30.09,West,280,6.0,10.0,66,0.00,,,0.00,,2013-05-08 18:11:00,
2013-05-08 11:21:00,63.0,51.0,30.09,West,276,5.0,10.0,65,0.00,,,0.00,,2013-05-08 18:21:00,
2013-05-08 11:31:00,64.0,51.0,30.09,WNW,300,5.0,11.0,63,0.00,,,0.00,,2013-05-08 18:31:00,
2013-05-08 11:41:00,64.0,51.0,30.09,WNW,300,5.0,11.0,63,0.00,,,0.00,,2013-05-08 18:41:00,
2013-05-08 11:52:00,67.0,52.0,30.09,WNW,291,7.0,13.0,58,0.00,,,0.00,,2013-05-08 18:52:00,
2013-05-08 12:01:00,66.0,51.0,30.09,WNW,299,7.0,12.0,59,0.00,,,0.00,,2013-05-08 19:01:00,
2013-05-08 12:11:00,66.0,51.0,30.09,WNW,299,7.0,12.0,59,0.00,,,0.00,,2013-05-08 19:11:00,
2013-05-08 12:21:00,65.0,50.0,30.09,NW,323,8.0,13.0,59,0.00,,,0.00,,2013-05-08 19:21:00,
2013-05-08 12:31:00,66.0,51.0,30.09,West,271,5.0,14.0,58,0.00,,,0.00,,2013-05-08 19:31:00,
2013-05-08 12:41:00,66.0,51.0,30.09,West,271,5.0,14.0,58,0.00,,,0.00,,2013-05-08 19:41:00,
2013-05-08 12:52:00,67.0,50.0,30.09,WSW,250,5.0,13.0,55,0.00,,,0.00,,2013-05-08 19:52:00,
2013-05-08 13:01:00,68.0,50.0,30.08,NW,317,8.0,12.0,53,0.00,,,0.00,,2013-05-08 20:01:00,
2013-05-08 13:11:00,68.0,50.0,30.08,NW,317,8.0,12.0,53,0.00,,,0.00,,2013-05-08 20:11:00,
2013-05-08 13:22:00,69.0,50.0,30.08,WNW,291,7.0,15.0,51,0.00,,,0.00,,2013-05-08 20:22:00,
2013-05-08 13:31:00,67.0,49.0,30.07,WNW,286,6.0,14.0,53,0.00,,,0.00,,2013-05-08 20:31:00,
2013-05-08 13:41:00,68.0,50.0,30.07,NNW,331,6.0,15.0,53,0.00,,,0.00,,2013-05-08 20:41:00,
2013-05-08 13:52:00,68.0,50.0,30.07,NNW,331,6.0,15.0,53,0.00,,,0.00,,2013-05-08 20:52:00,
2013-05-08 14:01:00,69.0,51.0,30.07,West,261,9.0,16.0,52,0.00,,,0.00,,2013-05-08 21:01:00,
2013-05-08 14:11:00,68.0,50.0,30.07,West,261,12.0,21.0,53,0.00,,,0.00,,2013-05-08 21:11:00,
2013-05-08 14:21:00,68.0,50.0,30.07,West,261,12.0,21.0,53,0.00,,,0.00,,2013-05-08 21:21:00,
2013-05-08 14:32:00,70.0,52.0,30.07,NW,304,7.0,15.0,53,0.00,,,0.00,,2013-05-08 21:32:00,
2013-05-08 14:43:00,69.0,51.0,30.06,WNW,296,12.0,18.0,52,0.00,,,0.00,,2013-05-08 21:43:00,
2013-05-08 14:52:00,69.0,51.0,30.06,WNW,296,12.0,18.0,52,0.00,,,0.00,,2013-05-08 21:52:00,
2013-05-08 15:02:00,69.0,50.0,30.06,West,267,10.0,18.0,51,0.00,,,0.00,,2013-05-08 22:02:00,
2013-05-08 15:12:00,68.0,49.0,30.06,NW,320,10.0,18.0,50,0.00,,,0.00,,2013-05-08 22:12:00,
2013-05-08 15:22:00,68.0,49.0,30.06,NW,320,10.0,18.0,50,0.00,,,0.00,,2013-05-08 22:22:00,
2013-05-08 15:32:00,69.0,50.0,30.06,WNW,295,6.0,17.0,50,0.00,,,0.00,,2013-05-08 22:32:00,
2013-05-08 15:42:00,70.0,48.0,30.06,West,267,8.0,16.0,46,0.00,,,0.00,,2013-05-08 22:42:00,
2013-05-08 15:52:00,70.0,48.0,30.06,West,267,8.0,16.0,46,0.00,,,0.00,,2013-05-08 22:52:00,
2013-05-08 16:01:00,70.0,49.0,30.05,WNW,294,9.0,17.0,48,0.00,,,0.00,,2013-05-08 23:01:00,
2013-05-08 16:11:00,69.0,50.0,30.05,WNW,303,12.0,17.0,50,0.00,,,0.00,,2013-05-08 23:11:00,
2013-05-08 16:22:00,69.0,50.0,30.05,WNW,303,12.0,17.0,50,0.00,,,0.00,,2013-05-08 23:22:00,
2013-05-08 16:32:00,69.0,48.0,30.05,WNW,294,9.0,17.0,48,0.00,,,0.00,,2013-05-08 23:32:00,
2013-05-08 16:42:00,69.0,49.0,30.05,WNW,286,6.0,16.0,49,0.00,,,0.00,,2013-05-08 23:42:00,
2013-05-08 16:52:00,69.0,49.0,30.05,WNW,286,6.0,16.0,49,0.00,,,0.00,,2013-05-08 23:52:00,
2013-05-08 17:01:00,69.0,48.0,30.05,WNW,283,7.0,14.0,48,0.00,,,0.00,,2013-05-09 00:01:00,
2013-05-08 17:11:00,69.0,48.0,30.05,WNW,283,7.0,14.0,48,0.00,,,0.00,,2013-05-09 00:11:00,
2013-05-08 17:21:00,69.0,49.0,30.05,West,264,8.0,19.0,49,0.00,,,0.00,,2013-05-09 00:21:00,
2013-05-08 17:32:00,68.0,49.0,30.05,WNW,283,10.0,15.0,50,0.00,,,0.00,,2013-05-09 00:32:00,
2013-05-08 17:42:00,68.0,49.0,30.05,WNW,287,8.0,16.0,51,0.00,,,0.00,,2013-05-09 00:42:00,
2013-05-08 17:52:00,68.0,49.0,30.05,WNW,287,8.0,16.0,51,0.00,,,0.00,,2013-05-09 00:52:00,
2013-05-08 18:01:00,67.0,49.0,30.05,WNW,294,8.0,16.0,53,0.00,,,0.00,,2013-05-09 01:01:00,
2013-05-08 18:11:00,67.0,50.0,30.05,West,277,8.0,14.0,54,0.00,,,0.00,,2013-05-09 01:11:00,
2013-05-08 18:22:00,67.0,50.0,30.05,West,277,8.0,14.0,54,0.00,,,0.00,,2013-05-09 01:22:00,
2013-05-08 18:32:00,66.0,49.0,30.06,West,274,9.0,13.0,55,0.00,,,0.00,,2013-05-09 01:32:00,
2013-05-08 18:42:00,65.0,50.0,30.06,West,274,7.0,14.0,58,0.00,,,0.00,,2013-05-09 01:42:00,
2013-05-08 18:52:00,65.0,50.0,30.06,West,274,7.0,14.0,58,0.00,,,0.00,,2013-05-09 01:52:00,
2013-05-08 19:01:00,64.0,50.0,30.06,West,279,5.0,13.0,60,0.00,,,0.00,,2013-05-09 02:01:00,
2013-05-08 19:11:00,63.0,50.0,30.06,West,263,7.0,13.0,62,0.00,,,0.00,,2013-05-09 02:11:00,
2013-05-08 19:21:00,63.0,50.0,30.06,West,263,7.0,13.0,62,0.00,,,0.00,,2013-05-09 02:21:00,
2013-05-08 19:32:00,62.0,50.0,30.06,WSW,243,5.0,12.0,65,0.00,,,0.00,,2013-05-09 02:32:00,
2013-05-08 19:41:00,62.0,50.0,30.06,WSW,243,5.0,12.0,65,0.00,,,0.00,,2013-05-09 02:41:00,
2013-05-08 19:52:00,62.0,50.0,30.06,WSW,243,5.0,12.0,65,0.00,,,0.00,,2013-05-09 02:52:00,
2013-05-08 20:01:00,59.0,50.0,30.07,West,263,5.0,11.0,71,0.00,,,0.00,,2013-05-09 03:01:00,
2013-05-08 20:11:00,59.0,50.0,30.07,West,263,5.0,11.0,71,0.00,,,0.00,,2013-05-09 03:11:00,
2013-05-08 20:21:00,57.0,49.0,30.07,WNW,292,6.0,14.0,74,0.00,,,0.00,,2013-05-09 03:21:00,
2013-05-08 20:32:00,56.0,49.0,30.08,West,264,5.0,12.0,76,0.00,,,0.00,,2013-05-09 03:32:00,
2013-05-08 20:43:00,56.0,49.0,30.08,West,264,5.0,12.0,76,0.00,,,0.00,,2013-05-09 03:43:00,
2013-05-08 20:53:00,55.0,48.0,30.09,SW,219,4.0,10.0,78,0.00,,,0.00,,2013-05-09 03:53:00,
2013-05-08 21:02:00,55.0,49.0,30.10,WSW,250,3.0,10.0,79,0.00,,,0.00,,2013-05-09 04:02:00,
2013-05-08 21:12:00,55.0,49.0,30.10,WSW,250,3.0,10.0,79,0.00,,,0.00,,2013-05-09 04:12:00,
2013-05-08 21:22:00,54.0,48.0,30.10,WNW,286,5.0,12.0,80,0.00,,,0.00,,2013-05-09 04:22:00,
2013-05-08 21:32:00,54.0,48.0,30.11,SW,234,5.0,10.0,80,0.00,,,0.00,,2013-05-09 04:32:00,
2013-05-08 21:42:00,54.0,48.0,30.11,SW,234,5.0,10.0,80,0.00,,,0.00,,2013-05-09 04:42:00,
2013-05-08 21:53:00,54.0,48.0,30.12,SW,233,3.0,11.0,81,0.00,,,0.00,,2013-05-09 04:53:00,
2013-05-08 22:02:00,54.0,48.0,30.12,West,272,2.0,8.0,81,0.00,,,0.00,,2013-05-09 05:02:00,
2013-05-08 22:11:00,54.0,48.0,30.12,West,272,2.0,8.0,81,0.00,,,0.00,,2013-05-09 05:11:00,
2013-05-08 22:22:00,54.0,48.0,30.13,WSW,249,4.0,9.0,81,0.00,,,0.00,,2013-05-09 05:22:00,
2013-05-08 22:32:00,54.0,48.0,30.13,West,265,2.0,7.0,81,0.00,,,0.00,,2013-05-09 05:32:00,
2013-05-08 22:42:00,54.0,48.0,30.13,West,265,2.0,7.0,81,0.00,,,0.00,,2013-05-09 05:42:00,
2013-05-08 22:51:00,54.0,48.0,30.13,NW,306,3.0,8.0,81,0.00,,,0.00,,2013-05-09 05:51:00,
2013-05-08 23:01:00,54.0,48.0,30.13,SW,220,2.0,7.0,81,0.00,,,0.00,,2013-05-09 06:01:00,
2013-05-08 23:11:00,54.0,48.0,30.13,SW,220,2.0,7.0,81,0.00,,,0.00,,2013-05-09 06:11:00,
2013-05-08 23:21:00,54.0,48.0,30.13,SSW,196,5.0,8.0,81,0.00,,,0.00,,2013-05-09 06:21:00,
2013-05-08 23:32:00,54.0,48.0,30.12,WSW,237,4.0,9.0,81,0.00,,,0.00,,2013-05-09 06:32:00,
2013-05-08 23:41:00,54.0,48.0,30.12,WSW,237,4.0,9.0,81,0.00,,,0.00,,2013-05-09 06:41:00,
2013-05-08 23:52:00,54.0,48.0,30.12,SW,230,3.0,8.0,81,0.00,,,0.00,,2013-05-09 06:52:00,